Regional Weather Roundup
Issued by NWS Charleston, SC

Current Version | Previous Version | Graphics & Text | Print | Product List | Glossary On
Versions: 1 2 3 4 5 6 7 8 9 10 11 12 13 14 15 16 17 18 19 20 21 22 23 24 25 26 27 28 29 30 31 32 33 34 35 36 37 38 39 40 41 42 43 44 45 46 47 48 49 50
000
ASUS42 KCHS 022212
RWRCHS

REGIONAL WEATHER ROUNDUP
NATIONAL WEATHER SERVICE CHARLESTON SC
600 PM EDT THU JUL 02 2015

NOTE: "FAIR" INDICATES FEW OR NO CLOUDS BELOW 12,000 FEET WITH NO
SIGNIFICANT WEATHER AND/OR OBSTRUCTIONS TO VISIBILITY.

NOT ALL STATIONS ARE QUALITY CONTROLLED BY THE NATIONAL
WEATHER SERVICE. USE DATA WITH CAUTION...ESPECIALLY
DEWPOINT OBSERVATIONS.

SCZ027-030-031-034>040-042>050-022300-
...SOUTHEAST SOUTH CAROLINA...

CITY           SKY/WX    TMP DP  RH WIND       PRES   REMARKS
N CHARLESTON   MOSUNNY   87  74  64 S21       29.93F HX  95
WATERFRONT PAR   N/A     84  77  79 S14       29.92F HX  94
MOUNT PLEASANT FAIR      86  75  70 S15G22    29.94F HX  95
JOHNS ISLAND   FAIR      86  77  74 S13       29.95F HX  97
PINOPOLIS      NOT AVBL
MONCKS CORNER  FAIR      91  72  52 S15       29.91F HX  98
SUMMERVILLE    FAIR      90  77  66 S6        29.92F HX 102
BEAUFORT MCAS  MOSUNNY   91  76  61 S9G17     29.94S HX 103
BEAUFORT ARPT  FAIR      86  77  74 S9G20     29.94S HX  97
HILTON HEAD IS MOSUNNY   84  75  74 S12       29.97S HX  92
WALTERBORO     PTCLDY    90  68  48 S13G20    29.92F HX  93
ALLENDALE      FAIR      90  70  51 VRB7      29.91F HX  95

...SOUTHERN MIDLANDS AND PEE DEE...

CITY           SKY/WX    TMP DP  RH WIND       PRES   REMARKS
GEORGETOWN     NOT AVBL
KINGSTREE      NOT AVBL
ORANGEBURG     TSTM      73  69  87 NW15G36   29.98R VSB 3/4
BARNWELL       TSTM      75  68  78 NW13G25   29.97R
AIKEN          NOT AVBL
MANNING        FAIR      90  63  40 S7        29.90S HX  90
COLUMBIA       LGT RAIN  72  68  87 SW6       29.95F
SUMTER         HVY RAIN  73  70  88 W15G29    29.96R FOG
FLORENCE       CLOUDY    84  67  56 N21       29.89R
MYRTLE BEACH   MOSUNNY   88  72  58 S23       29.92F HX  94
N MYRTLE BEACH SUNNY     86  74  67 SW18G30   29.91S HX  94

$$

GAZ063-065-086>088-099>101-113>116-118-119-134>141-150-022300-
...SOUTHEAST GEORGIA...

CITY           SKY/WX    TMP DP  RH WIND       PRES   REMARKS
SAVANNAH ARPT  PTSUNNY   91  69  48 SW10      29.94F HX  96
HUNTER AAF     MOSUNNY   92  72  51 SW8G18    29.93S HX 100
FORT STEWART   MOSUNNY   91  71  51 SW9       29.94S HX  97
STATESBORO     NOT AVBL
SYLVANIA       PTCLDY    90  74  59 W8        29.96R HX 100
CLAXTON        FAIR      88  73  62 SW6       29.96R HX  96

...CSRA...CENTRAL AND FAR SOUTHEAST GEORGIA...

CITY           SKY/WX    TMP DP  RH WIND       PRES   REMARKS
THOMSON        CLOUDY    72  72 100 N5        30.04S
AUGUSTA-BUSH   HVY RAIN  73  70  90 W24G35    30.01R VSB 3/4
AUGUSTA-DANIEL TSTM      72  69  90 W8G22     30.01R FOG
SWAINSBORO     TSTM     N/A N/A N/A W9G17     30.01R
VIDALIA        TSTM      72  70  94 W10G18    30.02R
EASTMAN        MOCLDY    74  74 100 CALM      30.05F
HAZLEHURST     DRIZZLE   73  72  99 SW7       30.04
ALMA           TSTM      72  71  97 NW14G29   30.08R VSB 1
WAYCROSS       TSTM      76  74  95 NW15G25   30.07R
JESUP          FAIR      95  72  46 W10G20    29.99R HX 103
BAXLEY           N/A     77  68  73 NW22      30.06R
BRUNSWICK      PTSUNNY   91  70  49 W10       29.99S HX  97
SAINT SIMONS   MOSUNNY   83  73  72 S13G23    29.99R

$$

SCZ027-028-034-036>038-045-046-048>050-GAZ119-141-022300-
...LAKE AND SUPPLEMENTAL COASTAL OBSERVATIONS...

STATION/POSITION TIME  TEMP    WIND        PRES    WAVE   SWELL
                       AIR SEA DIR/SP/G            HT/PER HT/PER/DIR
                 (UTC) (F)     (DEG/KT/KT) (MB)    (FT/S) (FT/S/D)
UPR LAKE MARION  NOT AVBL
WINYAH BAY       NOT AVBL
LAKE MURRAY      2100   71      10/  1/  5 1013.5R
ACE BASIN NERRS  NOT AVBL
FORT PULASKI     2100   86 85  160/  8/ 17 1014.9F
SAPELO ISLAND    2100   93     200/ 11     1015.0S

$$

ANZ835-935-AMZ111-154-330-350-352-354-370-450-454-472-022300-
...C-MAN AND BUOY OBSERVATIONS...

STATION/POSITION TIME  TEMP    WIND        PRES    WAVE   SWELL
                       AIR SEA DIR/SP/G            HT/PER HT/PER/DIR
                 (UTC) (F)     (DEG/KT/KT) (MB)    (FT/S) (FT/S/D)
BUOY 41004       2150   82 82  200/ 19/ 23 1013.7F   4/ 5   2/ 9
BUOY 41008       2150   80 79  190/ 19/ 23 1015.0F   3/ 4   2/100/ 8
FOLLY BEACH CMAN 2100   82     190/ 15/ 18 1014.7F
CAPERS NEARSHORE 2108   81     200/ 17/ 23 1014.5F
FRIPP NEARSHORE  2100   83     190/ 19/ 21 1014.2F


STATION/POSITION TIME  TEMP    WIND        PRES    WAVE   SWELL
                       AIR SEA DIR/SP/G            HT/PER HT/PER/DIR
                 (UTC) (F)     (DEG/KT/KT) (MB)    (FT/S) (FT/S/D)
5E ST. MARYS GA  2121      78                N/A     3/ 4
FRYING PAN BUOY  2150   82 80  210/ 19/ 21 1013.6F   4/ 6   2/140/ 7
BUOY 41025       2150   82 83  220/ 23/ 29 1011.7F   5/ 5   2/180/16
CAPE LOOKOUT NC  2100   83     210/ 14/ 19 1012.5F
BUOY 41002       2150   80 80  210/ 10/ 12 1018.3F   5/ 7   5/240/ 7
BUOY 41010       2120   84 85  200/  8/ 10 1018.8F
ST AUGUSTINE FL  2200   75 73  200/  8/ 10 1019.3R


$$



USA.gov is the U.S. government's official web portal to all federal, state and local government web resources and services.